Flight Track Log - Related Links

Times and Time Zones

All times are in EDT time to prevent confusion due to time zone crossing. See the N210PM flight status page for this flight to view local times or setup timezone preferences in your user account.

Time Position Orientation Groundspeed Altitude Reporting Facility
EDT Latitude Longitude Course Direction KTS MPH feet Rate Location/Type
Sun 03:02:06 PM 40.7889 -96.7264 56° Northeast 187 215 3,400  Level Minneapolis Center
Sun 03:03:07 PM 40.8067 -96.6722 67° East 179 206 5,700 2,262 Climbing Minneapolis Center
Sun 03:04:08 PM 40.8386 -96.6164 53° Northeast 183 211 8,000 1,952 Climbing Minneapolis Center
Sun 03:05:13 PM 40.8772 -96.5678 44° Northeast 184 212 9,800 1,559 Climbing Minneapolis Center
Sun 03:06:15 PM 40.9125 -96.5075 52° Northeast 194 223 11,300 1,500 Climbing Minneapolis Center
Sun 03:07:00 PM 41.1711 -96.1579 56° Northeast  Level FlightAware Approximate
Sun 03:07:17 PM 40.9494 -96.4428 53° Northeast 207 238 12,900  Level Minneapolis Center
Sun 03:08:19 PM 40.9947 -96.3606 54° Northeast 221 254 14,900 1,694 Climbing Minneapolis Center
Sun 03:09:21 PM 41.0350 -96.2903 53° Northeast 230 265 16,400 1,452 Climbing Minneapolis Center
Sun 03:10:23 PM 41.0750 -96.2183 54° Northeast 239 275 17,900 1,355 Climbing Minneapolis Center
Sun 03:11:25 PM 41.1175 -96.1414 54° Northeast 250 288 19,200 1,355 Climbing Minneapolis Center
Sun 03:12:27 PM 41.1625 -96.0622 53° Northeast 266 306 20,700 1,403 Climbing Minneapolis Center
Sun 03:13:29 PM 41.2069 -95.9806 54° Northeast 271 312 22,100 1,452 Climbing Minneapolis Center
Sun 03:14:31 PM 41.2603 -95.8833 54° Northeast 271 312 23,700 1,488 Climbing Minneapolis Center
Sun 03:15:34 PM 41.3061 -95.8000 54° Northeast 278 320 25,200 1,248 Climbing Minneapolis Center
Sun 03:16:36 PM 41.3572 -95.7297 46° Northeast 267 307 26,300 1,065 Climbing Minneapolis Center
Sun 03:17:38 PM 41.4142 -95.6619 42° Northeast 271 312 27,400 1,065 Climbing Minneapolis Center
Sun 03:18:40 PM 41.4753 -95.5811 45° Northeast 278 320 28,500 968 Climbing Minneapolis Center
Sun 03:19:42 PM 41.5231 -95.4900 55° Northeast 296 341 29,400 823 Climbing Minneapolis Center
Sun 03:20:44 PM 41.5725 -95.3994 54° Northeast 301 346 30,200 774 Climbing Minneapolis Center
Sun 03:21:46 PM 41.6228 -95.3053 54° Northeast 310 357 31,000 726 Climbing Minneapolis Center
Sun 03:22:48 PM 41.6744 -95.2108 54° Northeast 314 361 31,700 677 Climbing Minneapolis Center
Sun 03:23:50 PM 41.7253 -95.1139 55° Northeast 317 365 32,400 629 Climbing Minneapolis Center
Sun 03:24:52 PM 41.7875 -94.9978 54° Northeast 319 367 33,000 290 Climbing Minneapolis Center
Sun 03:25:54 PM 41.8431 -94.8944 54° Northeast 334 384 33,000 532 Level Minneapolis Center
Sun 03:26:56 PM 41.8992 -94.7872 55° Northeast 347 399 34,100 677 Climbing Minneapolis Center
Sun 03:27:58 PM 41.9542 -94.6856 54° Northeast 339 390 34,400 435 Climbing Minneapolis Center
Sun 03:29:00 PM 42.0083 -94.5800 55° Northeast 342 394 35,000 293 Climbing Minneapolis Center
Sun 03:30:01 PM 42.0653 -94.4758 54° Northeast 344 396 35,000  Level Minneapolis Center
Sun 03:31:03 PM 42.1358 -94.3400 55° Northeast 364 419 35,000  Level Minneapolis Center
Sun 03:32:05 PM 42.1944 -94.2253 55° Northeast 371 427 35,000  Level Minneapolis Center
Sun 03:33:07 PM 42.2564 -94.1044 55° Northeast 378 435 35,000 290 Level Minneapolis Center
Sun 03:34:09 PM 42.3164 -93.9908 54° Northeast 375 432 35,600 774 Climbing Minneapolis Center
Sun 03:35:11 PM 42.3706 -93.8822 56° Northeast 355 409 36,600 677 Climbing Minneapolis Center
Sun 03:36:13 PM 42.4256 -93.7769 55° Northeast 347 399 37,000 194 Climbing Minneapolis Center
Sun 03:37:15 PM 42.4811 -93.6675 55° Northeast 352 405 37,000  Level Minneapolis Center
Sun 03:38:16 PM 42.5392 -93.5542 55° Northeast 362 417 37,000  Level Minneapolis Center
Sun 03:39:18 PM 42.6094 -93.4139 56° Northeast 373 429 37,000  Level Minneapolis Center
Sun 03:40:20 PM 42.6694 -93.2950 56° Northeast 381 438 37,000  Level Minneapolis Center
Sun 03:41:22 PM 42.7292 -93.1756 56° Northeast 384 442 37,000  Level Minneapolis Center
Sun 03:42:24 PM 42.7894 -93.0572 55° Northeast 384 442 37,000  Level Minneapolis Center
Sun 03:42:49 PM 42.8136 -93.0078 56° Northeast 385 443 37,000  Level Chicago Center
Sun 03:43:51 PM 42.8728 -92.8886 56° Northeast 384 442 37,000  Level Chicago Center
Sun 03:44:27 PM 42.9206 -92.7914 56° Northeast 386 444 37,000  Level Minneapolis Center
Sun 03:45:29 PM 42.9814 -92.6711 55° Northeast 386 444 37,000  Level Minneapolis Center
Sun 03:46:31 PM 43.0400 -92.5511 56° Northeast 384 442 37,000  Level Minneapolis Center
Sun 03:47:33 PM 43.1000 -92.4281 56° Northeast 389 448 37,000  Level Minneapolis Center
Sun 03:48:35 PM 43.1594 -92.3078 56° Northeast 386 444 37,000  Level Minneapolis Center
Sun 03:49:37 PM 43.2192 -92.1858 56° Northeast 386 444 37,000  Level Minneapolis Center
Sun 03:50:39 PM 43.2897 -92.0392 57° Northeast 386 444 37,000  Level Minneapolis Center
Sun 03:51:41 PM 43.3486 -91.9172 56° Northeast 385 443 37,000  Level Minneapolis Center
Sun 03:52:43 PM 43.4075 -91.7961 56° Northeast 384 442 37,000  Level Minneapolis Center
Sun 03:53:45 PM 43.4658 -91.6747 56° Northeast 383 441 37,000  Level Minneapolis Center
Sun 03:54:46 PM 43.5231 -91.5528 57° Northeast 382 440 37,000  Level Minneapolis Center
Sun 03:55:48 PM 43.5806 -91.4317 57° Northeast 380 437 37,000  Level Minneapolis Center
Sun 03:56:50 PM 43.6492 -91.2869 57° Northeast 379 436 37,000  Level Minneapolis Center
Sun 03:57:52 PM 43.7056 -91.1681 57° Northeast 375 432 37,000  Level Minneapolis Center
Sun 03:58:54 PM 43.7617 -91.0456 58° Northeast 378 435 37,000  Level Minneapolis Center
Sun 03:59:56 PM 43.8181 -90.9244 57° Northeast 378 435 37,000  Level Minneapolis Center
Sun 04:00:58 PM 43.8742 -90.8036 57° Northeast 377 434 37,000  Level Minneapolis Center
Sun 04:02:00 PM 43.9411 -90.6597 57° Northeast 373 429 37,000  Level Minneapolis Center
Sun 04:02:28 PM 43.9628 -90.6111 58° Northeast 375 432 37,000  Level Chicago Center
Sun 04:03:30 PM 44.0181 -90.4894 58° Northeast 376 433 37,000  Level Chicago Center
Sun 04:04:32 PM 44.0728 -90.3697 58° Northeast 371 427 37,000  Level Chicago Center
Sun 04:05:34 PM 44.1358 -90.2364 57° Northeast 372 428 37,000  Level Chicago Center
Sun 04:05:56 PM 44.1525 -90.1942 61° Northeast 372 428 37,000  Level Minneapolis Center
Sun 04:06:58 PM 44.2081 -90.0703 58° Northeast 376 433 37,000  Level Minneapolis Center
Sun 04:08:00 PM 44.2733 -89.9244 58° Northeast 379 436 37,000  Level Minneapolis Center
Sun 04:09:02 PM 44.3294 -89.7997 58° Northeast 380 437 37,000  Level Minneapolis Center
Sun 04:10:04 PM 44.3847 -89.6775 58° Northeast 374 430 37,000  Level Minneapolis Center
Sun 04:11:06 PM 44.4408 -89.5514 58° Northeast 377 434 37,000  Level Minneapolis Center
Sun 04:12:08 PM 44.4964 -89.4250 58° Northeast 381 438 37,000  Level Minneapolis Center
Sun 04:13:11 PM 44.5528 -89.2981 58° Northeast 381 438 37,000  Level Minneapolis Center
Sun 04:14:13 PM 44.6175 -89.1481 59° Northeast 384 442 37,000  Level Minneapolis Center
Sun 04:15:15 PM 44.6728 -89.0222 58° Northeast 380 437 37,000  Level Minneapolis Center
Sun 04:16:17 PM 44.7281 -88.8953 58° Northeast 380 437 37,000  Level Minneapolis Center
Sun 04:17:19 PM 44.7825 -88.7664 59° Northeast 382 440 37,000  Level Minneapolis Center
Sun 04:18:21 PM 44.8378 -88.6411 58° Northeast 378 435 37,000  Level Minneapolis Center
Sun 04:19:23 PM 44.8908 -88.5153 59° Northeast 374 430 37,000  Level Minneapolis Center
Sun 04:21:05 PM 44.9894 -88.2858 59° Northeast 371 427 37,000  Level Chicago Center
Sun 04:21:27 PM 45.0061 -88.2444 60° Northeast 368 423 37,000  Level Minneapolis Center
Sun 04:22:29 PM 45.0536 -88.1319 59° Northeast 368 423 37,000  Level Minneapolis Center
Sun 04:23:31 PM 45.1158 -87.9836 59° Northeast 366 421 37,000  Level Minneapolis Center
Sun 04:24:33 PM 45.1678 -87.8594 59° Northeast 367 422 37,000  Level Minneapolis Center
Sun 04:25:35 PM 45.2194 -87.7369 59° Northeast 363 418 37,000  Level Minneapolis Center
Sun 04:26:37 PM 45.2711 -87.6142 59° Northeast 362 417 37,000  Level Minneapolis Center
Sun 04:27:39 PM 45.3222 -87.4897 60° Northeast 365 420 37,000  Level Minneapolis Center
Sun 04:28:41 PM 45.3736 -87.3628 60° Northeast 368 423 37,000  Level Minneapolis Center
Sun 04:29:44 PM 45.4361 -87.2125 59° Northeast 368 423 37,000  Level Minneapolis Center
Sun 04:30:46 PM 45.4872 -87.0850 60° Northeast 369 425 37,000  Level Minneapolis Center
Sun 04:31:48 PM 45.5386 -86.9594 60° Northeast 368 423 37,000  Level Minneapolis Center
Sun 04:32:50 PM 45.5897 -86.8322 60° Northeast 368 423 37,000  Level Minneapolis Center
Sun 04:33:52 PM 45.6397 -86.7061 60° Northeast 367 422 37,000 -97 Level Minneapolis Center
Sun 04:34:54 PM 45.6908 -86.5803 60° Northeast 366 421 36,800 -1,210 Descending Minneapolis Center
Sun 04:35:56 PM 45.7442 -86.4436 61° Northeast 391 450 34,500 -2,516 Descending Minneapolis Center
Sun 04:36:58 PM 45.8131 -86.2700 60° Northeast 413 475 31,600 -2,613 Descending Minneapolis Center
Sun 04:38:00 PM 45.8664 -86.1353 60° Northeast 398 458 29,100 -2,274 Descending Minneapolis Center
Sun 04:39:02 PM 45.9153 -86.0122 60° Northeast 367 422 26,900 -2,081 Descending Minneapolis Center
Sun 04:40:04 PM 45.9608 -85.8911 62° Northeast 350 403 24,800 -2,032 Descending Minneapolis Center
Sun 04:41:06 PM 46.0086 -85.7706 60° Northeast 348 400 22,700 -2,081 Descending Minneapolis Center
Sun 04:42:08 PM 46.0542 -85.6508 61° Northeast 344 396 20,500 -2,323 Descending Minneapolis Center
Sun 04:43:10 PM 46.1117 -85.5053 60° Northeast 347 399 17,900 -2,323 Descending Minneapolis Center
Sun 04:44:12 PM 46.1567 -85.3817 62° Northeast 348 400 15,700 -2,081 Descending Minneapolis Center
Sun 04:45:14 PM 46.2006 -85.2689 61° Northeast 339 390 13,600 -1,935 Descending Minneapolis Center
Sun 04:46:16 PM 46.2428 -85.1603 61° Northeast 327 376 11,700 -1,872 Descending Minneapolis Center
Sun 04:47:19 PM 46.2839 -85.0467 62° Northeast 312 359 9,700 -1,872 Descending Minneapolis Center
Sun 04:48:21 PM 46.3244 -84.9403 61° Northeast 289 333 7,800 -1,721 Descending Minneapolis Center
Sun 04:49:28 PM 46.3500 -84.8333 71° East 280 322 6,000 -1,636 Descending Toronto Center
Sun 04:51:28 PM 46.4000 -84.6167 71° East 270 311 2,700 -1,167 Descending Toronto Center
Sun 04:52:28 PM 46.4000 -84.5167 90° East 230 265 2,500 -200 Descending Toronto Center
Sun 04:53:28 PM 46.4000 -84.4500 90° East 170 196 2,300 -350 Descending Toronto Center
Sun 04:54:28 PM 46.4333 -84.4167 35° Northeast 130 150 1,800 -550 Descending Toronto Center
Sun 04:55:28 PM 46.4667 -84.4500 325° Northwest 100 115 1,200 -500 Descending Toronto Center
Sun 04:56:28 PM 46.4667 -84.5000 270° West 90 104 800 -400 Descending Toronto Center

Login

Don't have an account? Register now (free) for customized features, flight alerts, and more!